| time (UTC) | temp F | wind direction | speed MPH | gust MPH | rain 1hr in | rain 24hr in | rain mn in | humidity % | barometer mb |
| 20260502032706 | 37 | 0 | 0.0 | 0.0 | 0.00 | 0.10 | 0.11 | 100 | 1014.8 |
| 20260502031806 | 38 | 0 | 0.0 | 0.0 | 0.00 | 0.10 | 0.11 | 100 | 1014.6 |
| 20260502030906 | 38 | 0 | 0.0 | 0.0 | 0.00 | 0.10 | 0.11 | 100 | 1014.8 |
| 20260502030006 | 38 | 0 | 0.0 | 0.0 | 0.00 | 0.10 | 0.11 | 100 | 1015.0 |
| 20260502025406 | 39 | 0 | 0.0 | 0.0 | 0.00 | 0.10 | 0.11 | 100 | 1014.9 |
| 20260502024527 | 39 | 0 | 0.0 | 0.0 | 0.00 | 0.10 | 0.11 | 100 | 1014.8 |
| 20260502023606 | 40 | 0 | 0.0 | 0.0 | 0.00 | 0.10 | 0.11 | 100 | 1014.8 |
| 20260502022706 | 41 | 293 | 0.0 | 2.0 | 0.00 | 0.10 | 0.11 | 100 | 1014.8 |
| 20260502021827 | 41 | 293 | 0.0 | 2.0 | 0.00 | 0.10 | 0.11 | 100 | 1014.7 |
| 20260502020927 | 41 | 0 | 0.0 | 0.0 | 0.00 | 0.10 | 0.11 | 100 | 1014.6 |
| 20260502020006 | 41 | 0 | 0.0 | 0.0 | 0.00 | 0.10 | 0.11 | 97 | 1014.1 |
| 20260502015406 | 41 | 0 | 0.0 | 0.0 | 0.00 | 0.10 | 0.11 | 97 | 1014.5 |
| 20260502014506 | 41 | 0 | 0.0 | 0.0 | 0.00 | 0.10 | 0.11 | 97 | 1014.4 |
| 20260502013606 | 41 | 0 | 0.0 | 0.0 | 0.00 | 0.10 | 0.11 | 97 | 1014.1 |
| 20260502012727 | 41 | 0 | 0.0 | 0.0 | 0.00 | 0.10 | 0.11 | 96 | 1013.8 |
| 20260502011806 | 41 | 0 | 0.0 | 0.0 | 0.00 | 0.10 | 0.11 | 96 | 1013.7 |
| 20260502010906 | 41 | 0 | 0.0 | 0.0 | 0.00 | 0.10 | 0.11 | 96 | 1013.7 |
| 20260502010006 | 41 | 0 | 0.0 | 0.0 | 0.00 | 0.10 | 0.11 | 95 | 1013.5 |
| 20260502005406 | 41 | 0 | 0.0 | 0.0 | 0.00 | 0.10 | 0.11 | 95 | 1013.6 |
| 20260502004527 | 41 | 351 | 0.0 | 2.0 | 0.00 | 0.10 | 0.11 | 94 | 1013.5 |
| 20260502003606 | 42 | 307 | 1.0 | 8.0 | 0.00 | 0.10 | 0.11 | 93 | 1013.5 |
| 20260502002706 | 43 | 315 | 2.0 | 10.0 | 0.00 | 0.10 | 0.09 | 89 | 1013.8 |
| 20260502001806 | 45 | 0 | 0.0 | 0.0 | 0.00 | 0.10 | 0.07 | 86 | 1013.5 |
| 20260502000906 | 46 | 298 | 0.0 | 2.0 | 0.00 | 0.10 | 0.07 | 86 | 1013.2 |
| 20260502000027 | 46 | 312 | 0.0 | 10.0 | 0.00 | 0.10 | 0.07 | 85 | 1013.1 |
| 20260501235406 | 46 | 310 | 0.0 | 10.0 | 0.00 | 0.10 | 0.07 | 83 | 1013.0 |
| 20260501234527 | 47 | 302 | 0.0 | 5.0 | 0.00 | 0.10 | 0.07 | 79 | 1012.8 |
| 20260501233627 | 47 | 316 | 0.0 | 10.0 | 0.00 | 0.10 | 0.07 | 77 | 1012.5 |
| 20260501232705 | 47 | 295 | 0.0 | 5.0 | 0.00 | 0.10 | 0.07 | 78 | 1012.4 |
| 20260501231806 | 47 | 295 | 1.0 | 5.0 | 0.00 | 0.10 | 0.07 | 77 | 1012.3 |
| 20260501230905 | 48 | 301 | 1.0 | 5.0 | 0.00 | 0.10 | 0.07 | 77 | 1012.5 |
| 20260501230005 | 48 | 291 | 1.0 | 5.0 | 0.00 | 0.10 | 0.07 | 76 | 1012.2 |
| 20260501225405 | 48 | 291 | 2.0 | 8.0 | 0.00 | 0.10 | 0.07 | 75 | 1012.4 |
| 20260501224505 | 49 | 299 | 1.0 | 5.0 | 0.00 | 0.10 | 0.07 | 73 | 1012.4 |
| 20260501223606 | 49 | 305 | 1.0 | 5.0 | 0.00 | 0.10 | 0.07 | 78 | 1012.4 |
| 20260501222705 | 49 | 308 | 1.0 | 10.0 | 0.00 | 0.10 | 0.07 | 77 | 1012.7 |